[[{"header":{"parameterUnit":"m.s-1","parameterCategory":1,"la1":30.2991,"la2":30.254,"lo1":-89.0895,"lo2":-89.0444,"dy":0.0017,"dx":0.0017,"nx":28,"ny":28,"refTime":"2025-08-20T21:00:00:Z","depth":0,"parameterNumber":2,"parameterNumberName":"U-component_of_WINDS"},"data":[0,0,0,0,0,0,0,0,0,0,0,0,0,0,0,0,0,0,0,0,0,0,0,0,0,0,0,0,0,0,0,0,0,0,0,0,0,0,0,0,0,0,0,0,0,0,0,0,0,0,0,0,0,0,0,0,0,0,-0.2507,-0.2507,0,-0.2543,-0.2543,-0.2544,-0.2563,-0.2563,-0.2563,-0.2563,-0.2595,-0.2596,-0.2597,0,0,0,0,0,0,0,0,0,0,0,0,0,-0.245,-0.245,-0.2507,-0.2507,-0.2508,-0.2543,-0.2543,-0.2544,-0.2563,-0.2563,-0.2563,-0.2563,-0.2595,-0.2596,-0.2597,0,0,0,0,0,0,0,0,0,0,0,0,0,-0.2479,-0.2451,-0.2507,-0.2521,-0.2523,-0.2543,-0.2543,-0.2544,-0.2563,-0.2563,-0.2563,-0.2563,-0.2595,-0.2596,-0.2597,-0.2604,0,0,-0.2601,-0.2602,0,0,0,0,0,0,0,0,-0.2477,-0.2481,-0.2519,-0.252,-0.2522,-0.2548,-0.2535,-0.2564,-0.2563,-0.2547,-0.2563,-0.2563,-0.2579,-0.2582,-0.2588,-0.2605,-0.2607,-0.2601,-0.2602,-0.2602,-0.2603,0,0,0,0,0,0,0,-0.2475,-0.2479,-0.2521,-0.2519,-0.2521,-0.2525,-0.2529,-0.2541,-0.2562,-0.2549,-0.255,-0.2555,-0.258,-0.2587,-0.2589,-0.2607,-0.2601,-0.2602,-0.2603,-0.2604,-0.2631,-0.2631,0,0,0,0,0,0,-0.2471,-0.2478,-0.252,-0.2522,-0.25,-0.2526,-0.253,-0.254,-0.2562,-0.2566,-0.2554,-0.2555,-0.2585,-0.2588,-0.2591,-0.26,-0.2602,-0.2604,-0.2604,-0.2631,-0.2631,-0.2631,0,0,0,0,0,0,-0.247,-0.2475,-0.2518,-0.25,-0.2506,-0.2527,-0.2537,-0.2541,-0.2548,-0.2567,-0.257,-0.2558,-0.2585,-0.2589,-0.2601,-0.2601,-0.2604,-0.2605,-0.2631,-0.2631,-0.2631,-0.2618,0,0,0,0,0,0,-0.2468,-0.2474,-0.2478,-0.25,-0.2507,-0.2529,-0.2537,-0.2541,-0.255,-0.2552,-0.2571,-0.2574,-0.2586,-0.2599,-0.2602,-0.2603,-0.2606,-0.2631,-0.2631,-0.2631,-0.2618,-0.2617,-0.2616,0,0,0,0,0,-0.2466,-0.2472,-0.2478,-0.2483,-0.2512,-0.2529,-0.2533,-0.2547,-0.255,-0.2553,-0.2566,-0.2573,-0.26,-0.26,-0.2603,-0.2605,-0.2631,-0.2631,-0.2631,-0.2618,-0.2617,-0.2616,0,0,0,0,0,0,-0.2447,-0.2475,-0.2482,-0.2496,-0.251,-0.2532,-0.2537,-0.2545,-0.2558,-0.2559,-0.2575,-0.2579,-0.2589,-0.2598,-0.2597,-0.2612,-0.2616,-0.2617,-0.2606,-0.2605,-0.2604,-0.2601,-0.2607,0,0,0,0,0,-0.2445,-0.2458,-0.2481,-0.249,-0.2497,-0.2516,-0.2524,-0.2534,-0.2548,-0.2554,-0.2567,-0.258,-0.2592,-0.2599,-0.261,-0.2619,-0.2624,-0.2622,-0.2621,-0.262,-0.2621,-0.2626,-0.2625,-0.263,-0.263,-0.263,0,0,-0.244,-0.2457,-0.2464,-0.2487,-0.2499,-0.2511,-0.2521,-0.2532,-0.2541,-0.2555,-0.2568,-0.2578,-0.2593,-0.2604,-0.2609,-0.2611,-0.262,-0.262,-0.262,-0.262,-0.2626,-0.2625,-0.2625,-0.263,-0.263,-0.263,0,0,-0.2437,-0.2451,-0.2461,-0.2473,-0.2492,-0.2505,-0.2507,-0.2528,-0.2535,-0.2548,-0.256,-0.2569,-0.2588,-0.2599,-0.2607,-0.2608,-0.2615,-0.2611,-0.2606,-0.2611,-0.261,-0.261,-0.261,-0.261,-0.2611,-0.2611,-0.2611,0,-0.2428,-0.2447,-0.2464,-0.2476,-0.2485,-0.2501,-0.251,-0.252,-0.2541,-0.2547,-0.255,-0.2575,-0.2586,-0.26,-0.26,-0.2606,-0.2608,-0.2609,-0.2609,-0.2609,-0.2609,-0.2609,-0.2609,-0.261,-0.261,-0.261,-0.261,0,-0.2435,-0.2448,-0.2453,-0.2475,-0.2485,-0.2495,-0.2512,-0.252,-0.2529,-0.2541,-0.2553,-0.2568,-0.2582,-0.2586,-0.2594,-0.26,-0.2601,-0.2607,-0.2611,-0.2608,-0.2608,-0.2608,-0.2609,-0.261,-0.261,-0.261,0,0,-0.242,-0.2452,-0.2454,-0.2464,-0.2486,-0.2496,-0.2506,-0.2522,-0.2528,-0.2542,-0.2551,-0.2567,-0.2572,-0.2581,-0.2591,-0.2595,-0.2594,-0.26,-0.26,-0.2598,-0.2601,-0.2597,-0.2597,-0.2599,-0.2599,-0.26,-0.26,0,-0.242,-0.2441,-0.2457,-0.2472,-0.2484,-0.2498,-0.2507,-0.2521,-0.2532,-0.2542,-0.2554,-0.2565,-0.2571,-0.2577,-0.2582,-0.2593,-0.2595,-0.2593,-0.2606,-0.2607,-0.2602,-0.2597,-0.2593,-0.2592,-0.26,-0.26,-0.26,0,-0.2423,-0.2438,-0.2454,-0.2476,-0.2481,-0.2489,-0.2505,-0.2515,-0.253,-0.2538,-0.2548,-0.2558,-0.2569,-0.2572,-0.2586,-0.2585,-0.2591,-0.2597,-0.2597,-0.2599,-0.2603,-0.2598,-0.2592,-0.2592,-0.26,-0.26,-0.26,0,-0.241,-0.2435,-0.2448,-0.2456,-0.2481,-0.2486,-0.2496,-0.2512,-0.2521,-0.2534,-0.254,-0.2553,-0.256,-0.257,-0.2583,-0.2585,-0.2595,-0.26,-0.2601,-0.2601,-0.2602,-0.2602,-0.2597,-0.2606,-0.2606,-0.2606,-0.2606,0,-0.2408,-0.2418,-0.2443,-0.2451,-0.2461,-0.2478,-0.2488,-0.2499,-0.2513,-0.2522,-0.2535,-0.2543,-0.256,-0.257,-0.258,-0.259,-0.2593,-0.2598,-0.2601,-0.2597,-0.2596,-0.2601,-0.2601,-0.2606,-0.2606,-0.2606,-0.2606,0,-0.2396,-0.2414,-0.2429,-0.2452,-0.2458,-0.2464,-0.2483,-0.2491,-0.2503,-0.2514,-0.2518,-0.2536,-0.2548,-0.2562,-0.2578,-0.2585,-0.2594,-0.2598,-0.2589,-0.2591,-0.259,-0.259,-0.2588,-0.2589,-0.2598,-0.2598,-0.2597,0,-0.2394,-0.2402,-0.2426,-0.2434,-0.2445,-0.2457,-0.2466,-0.2483,-0.2492,-0.2511,-0.2515,-0.2529,-0.2541,-0.2559,-0.2573,-0.2585,-0.2589,-0.2588,-0.2591,-0.2587,-0.2589,-0.2588,-0.2589,-0.2587,-0.2587,-0.2586,-0.2586,0,-0.2387,-0.2396,-0.241,-0.2427,-0.2438,-0.2451,-0.2465,-0.247,-0.249,-0.2499,-0.2512,-0.2522,-0.2539,-0.2552,-0.2566,-0.2575,-0.2583,-0.2585,-0.2586,-0.2582,-0.2577,-0.258,-0.2586,-0.2585,-0.2585,-0.2585,-0.2585,-0.2585,-0.238,-0.2388,-0.2406,-0.2421,-0.2434,-0.2446,-0.2455,-0.2468,-0.248,-0.2497,-0.2506,-0.2519,-0.2534,-0.2554,-0.2563,-0.2572,-0.2575,-0.2576,-0.2577,-0.2577,-0.2575,-0.2576,-0.2575,-0.2575,-0.2575,-0.2575,-0.2575,0,-0.2374,-0.2387,-0.2401,-0.2421,-0.2432,-0.2441,-0.2457,-0.2465,-0.2477,-0.2491,-0.2503,-0.2518,-0.2531,-0.2545,-0.2559,-0.2563,-0.2567,-0.2566,-0.2566,-0.2568,-0.2572,-0.257,-0.2563,-0.2563,-0.2563,-0.2563,-0.2563,-0.2563,-0.2372,-0.2386,-0.2396,-0.2416,-0.2428,-0.2443,-0.2451,-0.2462,-0.2474,-0.2491,-0.2502,-0.2512,-0.2526,-0.254,-0.2552,-0.2556,-0.256,-0.2557,-0.2562,-0.2566,-0.2567,-0.2568,-0.2567,-0.2558,-0.2558,-0.2557,-0.2557,-0.2557]},{"header":{"parameterUnit":"m.s-1","parameterCategory":1,"la1":30.2991,"la2":30.254,"lo1":-89.0895,"lo2":-89.0444,"dy":0.0017,"dx":0.0017,"nx":28,"ny":28,"refTime":"2025-08-20T21:00:00:Z","depth":0,"parameterNumber":3,"parameterNumberName":"V-component_of_WINDS"},"data":[0,0,0,0,0,0,0,0,0,0,0,0,0,0,0,0,0,0,0,0,0,0,0,0,0,0,0,0,0,0,0,0,0,0,0,0,0,0,0,0,0,0,0,0,0,0,0,0,0,0,0,0,0,0,0,0,0,0,-0.2333,-0.2332,0,-0.2228,-0.2227,-0.2225,-0.217,-0.217,-0.217,-0.217,-0.2057,-0.2054,-0.2051,0,0,0,0,0,0,0,0,0,0,0,0,0,-0.2479,-0.2477,-0.2333,-0.2332,-0.2331,-0.2228,-0.2227,-0.2225,-0.217,-0.217,-0.217,-0.217,-0.2058,-0.2055,-0.2051,0,0,0,0,0,0,0,0,0,0,0,0,0,-0.2399,-0.2476,-0.2333,-0.2291,-0.2286,-0.2228,-0.2226,-0.2225,-0.217,-0.217,-0.217,-0.217,-0.2059,-0.2055,-0.2051,-0.2025,0,0,-0.2037,-0.2035,0,0,0,0,0,0,0,0,-0.2404,-0.2394,-0.2299,-0.2294,-0.2288,-0.2212,-0.2237,-0.2158,-0.217,-0.2214,-0.217,-0.217,-0.2108,-0.21,-0.208,-0.202,-0.2015,-0.2037,-0.2034,-0.2032,-0.2031,0,0,0,0,0,0,0,-0.2409,-0.2398,-0.2291,-0.2297,-0.2291,-0.2275,-0.2263,-0.2221,-0.2163,-0.221,-0.2206,-0.2195,-0.2106,-0.2085,-0.2077,-0.2014,-0.2037,-0.2033,-0.203,-0.2028,-0.1922,-0.1922,0,0,0,0,0,0,-0.2423,-0.2403,-0.2295,-0.2288,-0.2347,-0.2272,-0.2259,-0.2237,-0.2163,-0.2152,-0.2195,-0.2192,-0.2092,-0.2082,-0.2073,-0.2036,-0.2032,-0.2028,-0.2025,-0.1923,-0.1922,-0.1922,0,0,0,0,0,0,-0.2426,-0.2414,-0.2299,-0.2344,-0.2329,-0.227,-0.2245,-0.2235,-0.2214,-0.2152,-0.214,-0.2185,-0.2092,-0.2079,-0.2037,-0.2031,-0.2026,-0.2022,-0.1923,-0.1922,-0.1922,-0.1963,0,0,0,0,0,0,-0.2431,-0.2415,-0.2407,-0.2345,-0.2326,-0.2267,-0.2244,-0.2233,-0.2207,-0.2203,-0.2139,-0.2128,-0.2091,-0.2044,-0.2033,-0.2025,-0.2019,-0.1923,-0.1923,-0.1922,-0.1962,-0.1965,-0.1967,0,0,0,0,0,-0.2436,-0.2423,-0.2407,-0.2394,-0.2315,-0.2267,-0.2256,-0.2215,-0.2207,-0.2196,-0.2156,-0.213,-0.2034,-0.204,-0.2027,-0.2018,-0.1923,-0.1923,-0.1922,-0.1961,-0.1964,-0.1967,0,0,0,0,0,0,-0.2485,-0.2414,-0.2396,-0.2362,-0.2321,-0.2258,-0.2244,-0.222,-0.2179,-0.2177,-0.2125,-0.2111,-0.2072,-0.2041,-0.2049,-0.1987,-0.1976,-0.1973,-0.201,-0.2012,-0.2014,-0.2022,-0.2015,0,0,0,0,0,-0.2492,-0.2461,-0.24,-0.2376,-0.2356,-0.2304,-0.2281,-0.2253,-0.2207,-0.2189,-0.2146,-0.2101,-0.206,-0.2034,-0.1993,-0.1957,-0.194,-0.1944,-0.1946,-0.1948,-0.1946,-0.1921,-0.1921,-0.1921,-0.1921,-0.1921,0,0,-0.2507,-0.2464,-0.2447,-0.2385,-0.235,-0.2316,-0.229,-0.2256,-0.2229,-0.2183,-0.2141,-0.2107,-0.2053,-0.2013,-0.1993,-0.1985,-0.1942,-0.1948,-0.195,-0.1946,-0.192,-0.192,-0.192,-0.1921,-0.1921,-0.1921,0,0,-0.2515,-0.2481,-0.2456,-0.2421,-0.2368,-0.2332,-0.2326,-0.2266,-0.2242,-0.2198,-0.2162,-0.2128,-0.206,-0.2022,-0.1994,-0.1984,-0.1957,-0.1971,-0.1983,-0.1958,-0.1958,-0.1958,-0.1952,-0.195,-0.1969,-0.197,-0.197,0,-0.2539,-0.2489,-0.2446,-0.2413,-0.2385,-0.2342,-0.2315,-0.2282,-0.2218,-0.2198,-0.2191,-0.2102,-0.2063,-0.2011,-0.2009,-0.1988,-0.1977,-0.1979,-0.1962,-0.1961,-0.196,-0.1954,-0.1952,-0.1971,-0.1971,-0.1971,-0.1971,0,-0.2519,-0.2485,-0.247,-0.241,-0.238,-0.235,-0.23,-0.2274,-0.2247,-0.2211,-0.2165,-0.2116,-0.2063,-0.2049,-0.2022,-0.1992,-0.1989,-0.1973,-0.196,-0.1963,-0.1956,-0.1953,-0.1974,-0.1974,-0.1973,-0.1973,0,0,-0.2558,-0.2472,-0.2467,-0.2438,-0.2375,-0.2346,-0.2312,-0.2261,-0.2238,-0.2195,-0.2163,-0.2104,-0.2088,-0.2056,-0.2023,-0.2003,-0.1993,-0.1988,-0.1986,-0.1989,-0.1954,-0.1966,-0.1964,-0.1976,-0.1975,-0.1975,-0.1957,0,-0.2556,-0.2496,-0.2454,-0.2409,-0.2374,-0.2331,-0.2301,-0.2257,-0.2222,-0.2185,-0.2145,-0.2103,-0.2086,-0.2066,-0.2043,-0.2,-0.1986,-0.2,-0.1943,-0.1941,-0.1957,-0.196,-0.1973,-0.196,-0.1955,-0.1954,-0.1954,0,-0.2546,-0.2504,-0.2456,-0.2393,-0.2377,-0.2351,-0.2299,-0.2265,-0.2213,-0.2188,-0.2151,-0.2117,-0.2076,-0.2067,-0.2007,-0.2018,-0.1991,-0.1966,-0.1964,-0.1956,-0.1947,-0.1951,-0.1955,-0.1952,-0.1949,-0.195,-0.195,0,-0.2577,-0.2507,-0.2468,-0.2445,-0.2371,-0.2353,-0.2321,-0.2269,-0.224,-0.2193,-0.2173,-0.2122,-0.2094,-0.2053,-0.2006,-0.2004,-0.1949,-0.1937,-0.1925,-0.1926,-0.1916,-0.1917,-0.1914,-0.1901,-0.1901,-0.1901,-0.1901,0,-0.2578,-0.255,-0.2481,-0.2457,-0.2422,-0.2373,-0.2339,-0.2303,-0.2256,-0.2222,-0.2181,-0.2149,-0.2089,-0.2048,-0.201,-0.1965,-0.1953,-0.1929,-0.1919,-0.1932,-0.1935,-0.1914,-0.1913,-0.1901,-0.1901,-0.1901,-0.1901,0,-0.2607,-0.256,-0.2514,-0.2447,-0.243,-0.2407,-0.2348,-0.2321,-0.2283,-0.224,-0.2227,-0.2166,-0.2116,-0.2064,-0.1996,-0.197,-0.1925,-0.1913,-0.1944,-0.1938,-0.1928,-0.1929,-0.191,-0.1904,-0.1898,-0.1898,-0.1898,0,-0.2611,-0.2587,-0.2518,-0.2493,-0.2462,-0.2422,-0.2392,-0.234,-0.231,-0.2246,-0.2226,-0.2174,-0.2129,-0.205,-0.1998,-0.1945,-0.1929,-0.1926,-0.1921,-0.1933,-0.1926,-0.1927,-0.1923,-0.1928,-0.1928,-0.1928,-0.1929,0,-0.2622,-0.2598,-0.2558,-0.2507,-0.2472,-0.243,-0.2385,-0.2366,-0.2306,-0.2273,-0.2222,-0.2187,-0.2117,-0.2064,-0.2004,-0.1967,-0.1936,-0.1931,-0.1924,-0.1937,-0.1955,-0.1943,-0.1947,-0.1931,-0.1931,-0.1931,-0.1931,-0.1931,-0.2636,-0.2612,-0.2559,-0.2513,-0.2474,-0.2433,-0.2404,-0.2361,-0.2318,-0.2258,-0.223,-0.2178,-0.2121,-0.2038,-0.2001,-0.1958,-0.1949,-0.1941,-0.1939,-0.1937,-0.1939,-0.1963,-0.1947,-0.1946,-0.1946,-0.1946,-0.1946,0,-0.2643,-0.2606,-0.2565,-0.2504,-0.2467,-0.2442,-0.2391,-0.2361,-0.2316,-0.2267,-0.2223,-0.2162,-0.2109,-0.2052,-0.1995,-0.197,-0.1954,-0.1957,-0.1957,-0.1948,-0.1951,-0.1961,-0.197,-0.197,-0.197,-0.197,-0.197,-0.197,-0.2643,-0.26,-0.257,-0.2506,-0.2468,-0.2418,-0.239,-0.235,-0.2311,-0.2245,-0.2201,-0.2164,-0.211,-0.2048,-0.1997,-0.1981,-0.1961,-0.1967,-0.1947,-0.1951,-0.1949,-0.1947,-0.1956,-0.1964,-0.1964,-0.1947,-0.1947,-0.1947]}]]